{"data":{"norad_id":65540,"epoch":"2026-05-25T03:01:46.068960Z","epoch_age_seconds":57964,"freshness":"FRESH","line1":"1 65540U 25200W   26145.12622765  .00004214  00000+0  29585-3 0  9990","line2":"2 65540  97.4489 214.7962 0002669 131.1050 229.0408 15.05658070 40554","mean_motion":15.0565807,"eccentricity":0.0002669,"inclination_deg":97.4489,"raan_deg":214.7962,"arg_perigee_deg":131.105,"mean_anomaly_deg":229.0408,"bstar":0.00029585,"rev_number":4055,"period_min":95.639244307308,"perigee_km":547.63741753923,"apogee_km":551.33538291026,"semimajor_km":6927.6234002247,"source":"CELESTRAK","updated_at":"2026-05-25T13:38:20.850660Z"}}